M I D A S
Marine Information and Data Acquisition System
Tripno 1609 of the Zeeleeuw from 2008-11-12 08:00:00 to 2008-11-12 17:00:00
Back to CruiseResearch ActivitiesStationsMapUnderway DataData graphs

EquipmentUnitsComment
TimeDGPSUTC
LatitudeDGPSDM.mWGS84
LongitudeDGPSDM.mWGS84
TemperatureSBE03/SBE38deg celciusITS90
ConductivitySBE21S/mITS90
SalinitySBE21 Practical Salinity Units
ChlorophylAChelsea fluorimeterg/lCalibrated in Aceton
Missing or incorrect values are displayed as -999
Sea surface data collected by the RV Zeeleeuw from 2008-11-12 08:00:00 to 2008-11-12 17:00:00
Time Latitude Longitude Temperature Conductivity Salinity ChlorophylA
2008-11-12 08:02:10 51°13.623 2°56.048 -999 -999 -999 -999
2008-11-12 08:04:10 51°13.624 2°56.048 -999 -999 -999 -999
2008-11-12 08:05:20 51°13.624 2°56.047 -999 -999 -999 -999
2008-11-12 08:06:34 51°13.623 2°56.048 -999 0.048382 0.260163 -0.965744
2008-11-12 08:07:40 51°13.624 2°56.048 -999 -999 -999 -999
2008-11-12 08:08:39 51°13.624 2°56.047 -999 0.048073 0.258532 -0.965744
2008-11-12 08:10:30 51°13.624 2°56.048 -999 -999 -999 -999
2008-11-12 08:12:10 51°13.625 2°56.047 -999 -999 -999 -999
2008-11-12 08:13:49 51°13.624 2°56.048 -999 0.04797 0.258153 -0.965744
2008-11-12 08:15:00 51°13.624 2°56.048 -999 -999 -999 -999
2008-11-12 08:16:50 51°13.624 2°56.048 -999 -999 -999 -999
2008-11-12 08:18:50 51°13.623 2°56.048 -999 -999 -999 -999
2008-11-12 08:20:30 51°13.622 2°56.047 -999 -999 -999 -999
2008-11-12 08:22:30 51°13.624 2°56.047 -999 -999 -999 -999
2008-11-12 08:24:20 51°13.624 2°56.048 -999 -999 -999 -999
2008-11-12 08:26:20 51°13.627 2°56.048 -999 -999 -999 -999
2008-11-12 08:28:20 51°13.625 2°56.047 -999 -999 -999 -999
2008-11-12 08:30:20 51°13.623 2°56.047 -999 -999 -999 -999
2008-11-12 08:32:20 51°13.624 2°56.048 -999 -999 -999 -999
2008-11-12 08:34:20 51°13.625 2°56.048 -999 -999 -999 -999
2008-11-12 08:36:20 51°13.625 2°56.048 -999 -999 -999 -999
2008-11-12 08:38:20 51°13.624 2°56.047 -999 -999 -999 -999
2008-11-12 08:40:20 51°13.625 2°56.047 -999 -999 -999 -999
2008-11-12 08:42:20 51°13.626 2°56.047 -999 -999 -999 -999
2008-11-12 08:44:20 51°13.625 2°56.048 -999 -999 -999 -999
2008-11-12 08:46:20 51°13.62 2°56.049 -999 -999 -999 -999
2008-11-12 08:48:20 51°13.622 2°56.049 -999 -999 -999 -999
2008-11-12 08:50:20 51°13.623 2°56.048 -999 -999 -999 -999
2008-11-12 08:52:20 51°13.623 2°56.048 -999 -999 -999 -999
2008-11-12 08:54:20 51°13.623 2°56.047 -999 -999 -999 -999
2008-11-12 08:56:20 51°13.623 2°56.048 -999 -999 -999 -999
2008-11-12 08:57:40 51°13.622 2°56.048 -999 -999 -999 -999
2008-11-12 08:59:30 51°13.623 2°56.049 -999 -999 -999 -999
2008-11-12 09:00:50 51°13.623 2°56.047 -999 -999 -999 -999
2008-11-12 09:01:30 51°13.63 2°56.025 -999 -999 -999 -999
2008-11-12 09:02:10 51°13.647 2°55.977 -999 -999 -999 -999
2008-11-12 09:02:50 51°13.662 2°55.912 -999 -999 -999 -999
2008-11-12 09:03:30 51°13.673 2°55.848 -999 -999 -999 -999
2008-11-12 09:04:10 51°13.681 2°55.795 -999 -999 -999 -999
2008-11-12 09:04:50 51°13.686 2°55.759 -999 -999 -999 -999
2008-11-12 09:05:30 51°13.69 2°55.749 -999 -999 -999 -999
2008-11-12 09:06:10 51°13.703 2°55.77 -999 -999 -999 -999
2008-11-12 09:06:50 51°13.72 2°55.775 -999 -999 -999 -999
2008-11-12 09:07:30 51°13.714 2°55.769 -999 -999 -999 -999
2008-11-12 09:08:10 51°13.719 2°55.759 -999 -999 -999 -999
2008-11-12 09:08:50 51°13.744 2°55.726 -999 -999 -999 -999
2008-11-12 09:09:30 51°13.783 2°55.678 -999 -999 -999 -999
2008-11-12 09:10:10 51°13.834 2°55.633 -999 -999 -999 -999
2008-11-12 09:10:50 51°13.894 2°55.586 -999 -999 -999 -999
2008-11-12 09:11:30 51°13.953 2°55.543 -999 -999 -999 -999
2008-11-12 09:12:10 51°14.008 2°55.509 -999 -999 -999 -999
2008-11-12 09:12:50 51°14.06 2°55.474 -999 -999 -999 -999
2008-11-12 09:13:30 51°14.118 2°55.428 -999 -999 -999 -999
2008-11-12 09:14:10 51°14.187 2°55.362 -999 -999 -999 -999
2008-11-12 09:14:50 51°14.253 2°55.274 -999 -999 -999 -999
2008-11-12 09:15:30 51°14.313 2°55.173 -999 -999 -999 -999
2008-11-12 09:16:10 51°14.368 2°55.066 -999 -999 -999 -999
2008-11-12 09:16:50 51°14.436 2°54.972 -999 -999 -999 -999
2008-11-12 09:17:30 51°14.515 2°54.883 -999 -999 -999 -999
2008-11-12 09:18:10 51°14.61 2°54.827 -999 -999 -999 -999
2008-11-12 09:18:50 51°14.713 2°54.798 -999 -999 -999 -999
2008-11-12 09:19:30 51°14.815 2°54.78 -999 -999 -999 -999
2008-11-12 09:20:10 51°14.918 2°54.757 -999 -999 -999 -999
2008-11-12 09:20:50 51°15.022 2°54.73 -999 -999 -999 -999
2008-11-12 09:21:30 51°15.125 2°54.703 -999 -999 -999 -999
2008-11-12 09:22:10 51°15.228 2°54.671 -999 -999 -999 -999
2008-11-12 09:22:50 51°15.331 2°54.634 -999 -999 -999 -999
2008-11-12 09:23:30 51°15.432 2°54.594 -999 -999 -999 -999
2008-11-12 09:24:10 51°15.531 2°54.554 -999 -999 -999 -999
2008-11-12 09:24:50 51°15.63 2°54.513 -999 -999 -999 -999
2008-11-12 09:25:30 51°15.729 2°54.473 -999 -999 -999 -999
2008-11-12 09:26:10 51°15.831 2°54.433 -999 -999 -999 -999
2008-11-12 09:26:50 51°15.931 2°54.397 -999 -999 -999 -999
2008-11-12 09:27:30 51°16.006 2°54.372 -999 -999 -999 -999
2008-11-12 09:28:10 51°16.065 2°54.358 -999 -999 -999 -999
2008-11-12 09:28:50 51°16.115 2°54.345 -999 -999 -999 -999
2008-11-12 09:29:30 51°16.158 2°54.328 -999 -999 -999 -999
2008-11-12 09:30:10 51°16.191 2°54.303 -999 -999 -999 -999
2008-11-12 09:30:50 51°16.216 2°54.279 -999 -999 -999 -999
2008-11-12 09:31:30 51°16.233 2°54.273 -999 -999 -999 -999
2008-11-12 09:32:10 51°16.245 2°54.282 -999 -999 -999 -999
2008-11-12 09:32:50 51°16.254 2°54.3 -999 -999 -999 -999
2008-11-12 09:33:30 51°16.262 2°54.325 -999 -999 -999 -999
2008-11-12 09:34:10 51°16.268 2°54.353 -999 -999 -999 -999
2008-11-12 09:34:50 51°16.273 2°54.384 -999 -999 -999 -999
2008-11-12 09:35:30 51°16.277 2°54.414 -999 -999 -999 -999
2008-11-12 09:36:10 51°16.28 2°54.445 -999 -999 -999 -999
2008-11-12 09:36:50 51°16.282 2°54.475 -999 -999 -999 -999
2008-11-12 09:37:30 51°16.285 2°54.506 -999 -999 -999 -999
2008-11-12 09:38:10 51°16.288 2°54.537 -999 -999 -999 -999
2008-11-12 09:38:50 51°16.292 2°54.568 -999 -999 -999 -999
2008-11-12 09:39:30 51°16.296 2°54.601 -999 -999 -999 -999
2008-11-12 09:40:10 51°16.31 2°54.633 -999 -999 -999 -999
2008-11-12 09:40:50 51°16.336 2°54.651 -999 -999 -999 -999
2008-11-12 09:41:30 51°16.358 2°54.634 -999 -999 -999 -999
2008-11-12 09:42:10 51°16.351 2°54.604 -999 -999 -999 -999
2008-11-12 09:42:50 51°16.323 2°54.571 -999 -999 -999 -999
2008-11-12 09:43:30 51°16.293 2°54.527 -999 -999 -999 -999
2008-11-12 09:44:10 51°16.27 2°54.472 -999 -999 -999 -999
2008-11-12 09:44:50 51°16.266 2°54.402 -999 -999 -999 -999
2008-11-12 09:45:30 51°16.257 2°54.34 -999 -999 -999 -999
2008-11-12 09:46:10 51°16.243 2°54.309 -999 -999 -999 -999
2008-11-12 09:46:50 51°16.232 2°54.308 -999 -999 -999 -999
2008-11-12 09:47:30 51°16.227 2°54.323 -999 -999 -999 -999
2008-11-12 09:48:10 51°16.225 2°54.346 -999 -999 -999 -999
2008-11-12 09:48:50 51°16.225 2°54.375 -999 -999 -999 -999
2008-11-12 09:49:30 51°16.228 2°54.408 -999 -999 -999 -999
2008-11-12 09:50:10 51°16.23 2°54.444 -999 -999 -999 -999
2008-11-12 09:50:50 51°16.235 2°54.48 -999 -999 -999 -999
2008-11-12 09:51:30 51°16.24 2°54.517 -999 -999 -999 -999
2008-11-12 09:52:10 51°16.237 2°54.551 -999 -999 -999 -999
2008-11-12 09:52:50 51°16.223 2°54.568 -999 -999 -999 -999
2008-11-12 09:53:30 51°16.214 2°54.553 -999 -999 -999 -999
2008-11-12 09:54:10 51°16.226 2°54.536 -999 -999 -999 -999
2008-11-12 09:54:50 51°16.249 2°54.511 -999 -999 -999 -999
2008-11-12 09:55:30 51°16.256 2°54.473 -999 -999 -999 -999
2008-11-12 09:56:10 51°16.25 2°54.432 -999 -999 -999 -999
2008-11-12 09:56:50 51°16.249 2°54.393 -999 -999 -999 -999
2008-11-12 09:57:30 51°16.26 2°54.365 -999 -999 -999 -999
2008-11-12 09:58:10 51°16.273 2°54.36 -999 -999 -999 -999
2008-11-12 09:58:50 51°16.281 2°54.376 -999 -999 -999 -999
2008-11-12 09:59:30 51°16.289 2°54.403 -999 -999 -999 -999
2008-11-12 10:00:10 51°16.296 2°54.437 -999 -999 -999 -999
2008-11-12 10:00:50 51°16.303 2°54.476 -999 -999 -999 -999
2008-11-12 10:01:30 51°16.311 2°54.519 -999 -999 -999 -999
2008-11-12 10:02:10 51°16.32 2°54.564 -999 -999 -999 -999
2008-11-12 10:02:50 51°16.326 2°54.603 -999 -999 -999 -999
2008-11-12 10:03:30 51°16.31 2°54.592 -999 -999 -999 -999
2008-11-12 10:04:10 51°16.304 2°54.527 -999 -999 -999 -999
2008-11-12 10:04:50 51°16.282 2°54.462 -999 -999 -999 -999
2008-11-12 10:05:30 51°16.272 2°54.41 -999 -999 -999 -999
2008-11-12 10:06:10 51°16.267 2°54.37 -999 -999 -999 -999
2008-11-12 10:06:50 51°16.254 2°54.333 -999 -999 -999 -999
2008-11-12 10:07:30 51°16.247 2°54.317 -999 -999 -999 -999
2008-11-12 10:08:10 51°16.249 2°54.338 -999 -999 -999 -999
2008-11-12 10:08:50 51°16.253 2°54.369 -999 -999 -999 -999
2008-11-12 10:09:30 51°16.257 2°54.405 -999 -999 -999 -999
2008-11-12 10:10:10 51°16.262 2°54.444 -999 -999 -999 -999
2008-11-12 10:10:50 51°16.268 2°54.484 -999 -999 -999 -999
2008-11-12 10:11:30 51°16.267 2°54.52 -999 -999 -999 -999
2008-11-12 10:12:10 51°16.251 2°54.516 -999 -999 -999 -999
2008-11-12 10:12:50 51°16.253 2°54.472 -999 -999 -999 -999
2008-11-12 10:13:30 51°16.255 2°54.405 -999 -999 -999 -999
2008-11-12 10:14:10 51°16.255 2°54.344 -999 -999 -999 -999
2008-11-12 10:14:50 51°16.257 2°54.303 -999 -999 -999 -999
2008-11-12 10:15:30 51°16.26 2°54.302 -999 -999 -999 -999
2008-11-12 10:16:10 51°16.267 2°54.325 -999 -999 -999 -999
2008-11-12 10:16:50 51°16.273 2°54.356 -999 -999 -999 -999
2008-11-12 10:17:30 51°16.28 2°54.394 -999 -999 -999 -999
2008-11-12 10:18:10 51°16.288 2°54.436 -999 -999 -999 -999
2008-11-12 10:18:50 51°16.298 2°54.481 -999 -999 -999 -999
2008-11-12 10:19:30 51°16.302 2°54.516 -999 -999 -999 -999
2008-11-12 10:20:10 51°16.294 2°54.491 -999 -999 -999 -999
2008-11-12 10:20:50 51°16.281 2°54.429 -999 -999 -999 -999
2008-11-12 10:21:30 51°16.261 2°54.357 -999 -999 -999 -999
2008-11-12 10:22:10 51°16.26 2°54.31 -999 -999 -999 -999
2008-11-12 10:22:50 51°16.264 2°54.302 -999 -999 -999 -999
2008-11-12 10:23:30 51°16.27 2°54.323 -999 -999 -999 -999
2008-11-12 10:24:10 51°16.276 2°54.351 -999 -999 -999 -999
2008-11-12 10:24:50 51°16.282 2°54.384 -999 -999 -999 -999
2008-11-12 10:25:30 51°16.289 2°54.422 -999 -999 -999 -999
2008-11-12 10:26:10 51°16.296 2°54.46 -999 -999 -999 -999
2008-11-12 10:26:50 51°16.287 2°54.479 -999 -999 -999 -999
2008-11-12 10:27:30 51°16.279 2°54.433 -999 -999 -999 -999
2008-11-12 10:28:10 51°16.263 2°54.361 -999 -999 -999 -999
2008-11-12 10:28:50 51°16.24 2°54.309 -999 -999 -999 -999
2008-11-12 10:29:30 51°16.239 2°54.294 -999 -999 -999 -999
2008-11-12 10:30:10 51°16.246 2°54.32 -999 -999 -999 -999
2008-11-12 10:30:50 51°16.253 2°54.354 -999 -999 -999 -999
2008-11-12 10:31:30 51°16.261 2°54.393 -999 -999 -999 -999
2008-11-12 10:32:10 51°16.27 2°54.436 -999 -999 -999 -999
2008-11-12 10:32:50 51°16.281 2°54.479 -999 -999 -999 -999
2008-11-12 10:33:30 51°16.293 2°54.524 -999 -999 -999 -999
2008-11-12 10:34:10 51°16.304 2°54.563 -999 -999 -999 -999
2008-11-12 10:34:50 51°16.299 2°54.573 -999 -999 -999 -999
2008-11-12 10:35:30 51°16.297 2°54.549 -999 -999 -999 -999
2008-11-12 10:36:10 51°16.29 2°54.512 -999 -999 -999 -999
2008-11-12 10:36:50 51°16.268 2°54.475 -999 -999 -999 -999
2008-11-12 10:37:30 51°16.26 2°54.43 -999 -999 -999 -999
2008-11-12 10:38:10 51°16.263 2°54.384 -999 -999 -999 -999
2008-11-12 10:38:50 51°16.252 2°54.36 -999 -999 -999 -999
2008-11-12 10:39:30 51°16.249 2°54.333 -999 -999 -999 -999
2008-11-12 10:40:10 51°16.255 2°54.322 -999 -999 -999 -999
2008-11-12 10:40:50 51°16.264 2°54.336 -999 -999 -999 -999
2008-11-12 10:41:30 51°16.273 2°54.359 -999 -999 -999 -999
2008-11-12 10:42:10 51°16.282 2°54.387 -999 -999 -999 -999
2008-11-12 10:42:50 51°16.291 2°54.421 -999 -999 -999 -999
2008-11-12 10:43:30 51°16.301 2°54.458 -999 -999 -999 -999
2008-11-12 10:44:10 51°16.311 2°54.499 -999 -999 -999 -999
2008-11-12 10:44:50 51°16.322 2°54.524 -999 -999 -999 -999
2008-11-12 10:45:30 51°16.321 2°54.519 -999 -999 -999 -999
2008-11-12 10:46:10 51°16.298 2°54.496 -999 -999 -999 -999
2008-11-12 10:46:50 51°16.273 2°54.456 -999 -999 -999 -999
2008-11-12 10:47:30 51°16.263 2°54.396 -999 -999 -999 -999
2008-11-12 10:48:10 51°16.255 2°54.34 -999 -999 -999 -999
2008-11-12 10:48:50 51°16.249 2°54.303 -999 -999 -999 -999
2008-11-12 10:49:30 51°16.254 2°54.306 -999 -999 -999 -999
2008-11-12 10:50:10 51°16.263 2°54.332 -999 -999 -999 -999
2008-11-12 10:50:50 51°16.273 2°54.365 -999 -999 -999 -999
2008-11-12 10:51:30 51°16.284 2°54.402 -999 -999 -999 -999
2008-11-12 10:52:10 51°16.293 2°54.443 -999 -999 -999 -999
2008-11-12 10:52:50 51°16.303 2°54.485 -999 -999 -999 -999
2008-11-12 10:53:30 51°16.32 2°54.51 -999 -999 -999 -999
2008-11-12 10:54:10 51°16.337 2°54.499 -999 -999 -999 -999
2008-11-12 10:54:50 51°16.326 2°54.488 -999 -999 -999 -999
2008-11-12 10:55:30 51°16.295 2°54.474 -999 -999 -999 -999
2008-11-12 10:56:10 51°16.272 2°54.438 -999 -999 -999 -999
2008-11-12 10:56:50 51°16.267 2°54.384 -999 -999 -999 -999
2008-11-12 10:57:30 51°16.258 2°54.331 -999 -999 -999 -999
2008-11-12 10:58:10 51°16.246 2°54.304 -999 -999 -999 -999
2008-11-12 10:58:50 51°16.242 2°54.316 -999 -999 -999 -999
2008-11-12 10:59:30 51°16.248 2°54.348 -999 -999 -999 -999
2008-11-12 11:00:10 51°16.254 2°54.382 -999 -999 -999 -999
2008-11-12 11:00:50 51°16.261 2°54.418 -999 -999 -999 -999
2008-11-12 11:01:30 51°16.268 2°54.454 -999 -999 -999 -999
2008-11-12 11:02:10 51°16.275 2°54.49 -999 -999 -999 -999
2008-11-12 11:02:50 51°16.282 2°54.526 -999 -999 -999 -999
2008-11-12 11:03:30 51°16.283 2°54.56 -999 -999 -999 -999
2008-11-12 11:04:10 51°16.269 2°54.567 -999 -999 -999 -999
2008-11-12 11:04:50 51°16.266 2°54.54 -999 -999 -999 -999
2008-11-12 11:05:30 51°16.268 2°54.497 -999 -999 -999 -999
2008-11-12 11:06:10 51°16.257 2°54.449 -999 -999 -999 -999
2008-11-12 11:06:50 51°16.251 2°54.391 -999 -999 -999 -999
2008-11-12 11:07:30 51°16.251 2°54.328 -999 -999 -999 -999
2008-11-12 11:08:10 51°16.259 2°54.294 -999 -999 -999 -999
2008-11-12 11:08:50 51°16.27 2°54.309 -999 -999 -999 -999
2008-11-12 11:09:30 51°16.281 2°54.34 -999 -999 -999 -999
2008-11-12 11:10:10 51°16.29 2°54.375 -999 -999 -999 -999
2008-11-12 11:10:50 51°16.298 2°54.41 -999 -999 -999 -999
2008-11-12 11:11:30 51°16.306 2°54.445 -999 -999 -999 -999
2008-11-12 11:12:10 51°16.313 2°54.48 -999 -999 -999 -999
2008-11-12 11:12:50 51°16.32 2°54.515 -999 -999 -999 -999
2008-11-12 11:13:30 51°16.337 2°54.551 -999 -999 -999 -999
2008-11-12 11:14:10 51°16.371 2°54.572 -999 -999 -999 -999
2008-11-12 11:14:50 51°16.401 2°54.56 -999 -999 -999 -999
2008-11-12 11:15:30 51°16.393 2°54.528 -999 -999 -999 -999
2008-11-12 11:16:10 51°16.348 2°54.512 -999 -999 -999 -999
2008-11-12 11:16:50 51°16.3 2°54.465 -999 -999 -999 -999
2008-11-12 11:17:30 51°16.267 2°54.393 -999 -999 -999 -999
2008-11-12 11:18:10 51°16.245 2°54.314 -999 -999 -999 -999
2008-11-12 11:18:50 51°16.243 2°54.267 -999 -999 -999 -999
2008-11-12 11:19:30 51°16.248 2°54.252 -999 -999 -999 -999
2008-11-12 11:20:10 51°16.256 2°54.255 -999 -999 -999 -999
2008-11-12 11:20:50 51°16.265 2°54.269 -999 -999 -999 -999
2008-11-12 11:21:30 51°16.273 2°54.291 -999 -999 -999 -999
2008-11-12 11:22:10 51°16.281 2°54.321 -999 -999 -999 -999
2008-11-12 11:22:50 51°16.29 2°54.356 -999 -999 -999 -999
2008-11-12 11:23:30 51°16.298 2°54.395 -999 -999 -999 -999
2008-11-12 11:24:10 51°16.304 2°54.437 -999 -999 -999 -999
2008-11-12 11:24:50 51°16.309 2°54.478 -999 -999 -999 -999
2008-11-12 11:25:30 51°16.313 2°54.516 -999 -999 -999 -999
2008-11-12 11:26:10 51°16.317 2°54.552 -999 -999 -999 -999
2008-11-12 11:26:50 51°16.32 2°54.584 -999 -999 -999 -999
2008-11-12 11:27:30 51°16.326 2°54.615 -999 -999 -999 -999
2008-11-12 11:28:10 51°16.338 2°54.654 -999 -999 -999 -999
2008-11-12 11:28:50 51°16.359 2°54.719 -999 -999 -999 -999
2008-11-12 11:29:30 51°16.389 2°54.821 -999 -999 -999 -999
2008-11-12 11:30:10 51°16.435 2°54.955 -999 -999 -999 -999
2008-11-12 11:30:50 51°16.485 2°55.103 -999 -999 -999 -999
2008-11-12 11:31:30 51°16.534 2°55.256 -999 -999 -999 -999
2008-11-12 11:32:10 51°16.576 2°55.426 -999 -999 -999 -999
2008-11-12 11:32:50 51°16.613 2°55.62 -999 -999 -999 -999
2008-11-12 11:33:30 51°16.641 2°55.828 -999 -999 -999 -999
2008-11-12 11:34:10 51°16.663 2°56.036 -999 -999 -999 -999
2008-11-12 11:34:50 51°16.684 2°56.257 -999 -999 -999 -999
2008-11-12 11:35:30 51°16.702 2°56.467 -999 -999 -999 -999
2008-11-12 11:36:10 51°16.728 2°56.704 -999 -999 -999 -999
2008-11-12 11:36:50 51°16.753 2°56.941 -999 -999 -999 -999
2008-11-12 11:37:30 51°16.766 2°57.171 -999 -999 -999 -999
2008-11-12 11:38:10 51°16.775 2°57.408 -999 -999 -999 -999
2008-11-12 11:38:50 51°16.783 2°57.645 -999 -999 -999 -999
2008-11-12 11:39:30 51°16.789 2°57.881 -999 -999 -999 -999
2008-11-12 11:40:10 51°16.797 2°58.117 -999 -999 -999 -999
2008-11-12 11:40:50 51°16.806 2°58.34 -999 -999 -999 -999
2008-11-12 11:41:30 51°16.793 2°58.482 -999 -999 -999 -999
2008-11-12 11:42:10 51°16.776 2°58.582 -999 -999 -999 -999
2008-11-12 11:42:50 51°16.763 2°58.667 -999 -999 -999 -999
2008-11-12 11:43:30 51°16.749 2°58.743 -999 -999 -999 -999
2008-11-12 11:44:10 51°16.738 2°58.816 -999 -999 -999 -999
2008-11-12 11:44:50 51°16.73 2°58.888 -999 -999 -999 -999
2008-11-12 11:45:30 51°16.722 2°58.952 -999 -999 -999 -999
2008-11-12 11:46:10 51°16.715 2°59.004 -999 -999 -999 -999
2008-11-12 11:46:50 51°16.71 2°59.047 -999 -999 -999 -999
2008-11-12 11:47:30 51°16.707 2°59.085 -999 -999 -999 -999
2008-11-12 11:48:10 51°16.703 2°59.12 -999 -999 -999 -999
2008-11-12 11:48:50 51°16.695 2°59.154 -999 -999 -999 -999
2008-11-12 11:49:30 51°16.69 2°59.186 -999 -999 -999 -999
2008-11-12 11:50:10 51°16.688 2°59.217 -999 -999 -999 -999
2008-11-12 11:50:50 51°16.687 2°59.244 -999 -999 -999 -999
2008-11-12 11:51:30 51°16.689 2°59.27 -999 -999 -999 -999
2008-11-12 11:52:10 51°16.692 2°59.294 -999 -999 -999 -999
2008-11-12 11:52:50 51°16.693 2°59.318 -999 -999 -999 -999
2008-11-12 11:53:30 51°16.679 2°59.318 -999 -999 -999 -999
2008-11-12 11:54:10 51°16.661 2°59.246 -999 -999 -999 -999
2008-11-12 11:54:50 51°16.641 2°59.124 -999 -999 -999 -999
2008-11-12 11:55:30 51°16.609 2°58.969 -999 -999 -999 -999
2008-11-12 11:56:10 51°16.57 2°58.794 -999 -999 -999 -999
2008-11-12 11:56:50 51°16.534 2°58.622 -999 -999 -999 -999
2008-11-12 11:57:30 51°16.496 2°58.445 -999 -999 -999 -999
2008-11-12 11:58:10 51°16.46 2°58.268 -999 -999 -999 -999
2008-11-12 11:58:50 51°16.422 2°58.091 -999 -999 -999 -999
2008-11-12 11:59:30 51°16.384 2°57.915 -999 -999 -999 -999
2008-11-12 12:00:19 51°16.338 2°57.692 -999 0.060012 0.357976 -1.139864
2008-11-12 12:01:19 51°16.277 2°57.43 -999 0.060012 0.357876 -1.139864
2008-11-12 12:02:20 51°16.205 2°57.171 -999 0.060012 0.357826 -1.139864
2008-11-12 12:03:19 51°16.136 2°56.92 -999 0.060115 0.358396 -1.139864
2008-11-12 12:04:20 51°16.06 2°56.666 -999 0.060217 0.358994 -1.139864
2008-11-12 12:05:19 51°15.984 2°56.42 -999 0.060217 0.35893 -1.139864
2008-11-12 12:06:19 51°15.91 2°56.168 -999 0.06032 0.359636 -1.139864
2008-11-12 12:07:19 51°15.837 2°55.917 -999 0.06032 0.359564 -1.174688
2008-11-12 12:08:19 51°15.767 2°55.665 -999 0.06032 0.359593 -1.139864
2008-11-12 12:09:19 51°15.698 2°55.413 -999 0.060423 0.360212 -1.174688
2008-11-12 12:10:19 51°15.626 2°55.164 -999 0.060423 0.360248 -1.139864
2008-11-12 12:11:19 51°15.559 2°54.91 -999 0.060526 0.360918 -1.174688
2008-11-12 12:12:19 51°15.493 2°54.654 -999 0.060526 0.360968 -1.174688
2008-11-12 12:13:19 51°15.415 2°54.41 -999 0.060526 0.361026 -1.174688
2008-11-12 12:14:19 51°15.306 2°54.211 -999 0.060629 0.361674 -1.139864
2008-11-12 12:15:19 51°15.134 2°54.191 -999 0.060629 0.36171 -1.139864
2008-11-12 12:16:19 51°14.955 2°54.288 -999 0.060629 0.361725 -1.139864
2008-11-12 12:17:19 51°14.798 2°54.471 -999 0.060732 0.362417 -1.139864
2008-11-12 12:18:19 51°14.644 2°54.663 -999 0.060732 0.362388 -1.139864
2008-11-12 12:19:19 51°14.481 2°54.841 -999 0.060732 0.362402 -1.139864
2008-11-12 12:20:20 51°14.341 2°55.081 -999 0.060835 0.363037 -1.174688
2008-11-12 12:21:19 51°14.257 2°55.258 -999 0.060835 0.363044 -1.174688
2008-11-12 12:22:20 51°14.194 2°55.358 -999 0.060938 0.36365 -1.174688
2008-11-12 12:23:19 51°14.131 2°55.429 -999 0.060938 0.363679 -1.139864
2008-11-12 12:24:19 51°14.059 2°55.493 -999 0.060938 0.36373 -1.174688
2008-11-12 12:25:19 51°13.981 2°55.545 -999 0.060938 0.363766 -1.174688
2008-11-12 12:26:19 51°13.899 2°55.592 -999 0.061041 0.364422 -1.174688
2008-11-12 12:27:19 51°13.819 2°55.644 -999 0.061041 0.36443 -1.174688
2008-11-12 12:28:19 51°13.752 2°55.727 -999 0.061041 0.36443 -1.174688
2008-11-12 12:29:19 51°13.697 2°55.834 -999 0.061041 0.364437 -1.174688
2008-11-12 12:30:19 51°13.649 2°55.941 -999 0.061041 0.364401 -1.174688
2008-11-12 12:31:20 51°13.631 2°56.023 -999 0.061041 0.364437 -1.174688
2008-11-12 12:32:19 51°13.626 2°56.041 -999 0.061144 0.364999 -1.139864
2008-11-12 12:33:19 51°13.623 2°56.047 -999 0.061144 0.365043 -1.174688
2008-11-12 12:35:29 51°13.623 2°56.048 -999 0.061144 0.364985 -1.174688